Peachtree City, GA

6:04 AM EST on December 15, 2019 (GMT -0500)
Peachtree City-Falcon

Weather History for KFFC - June, 2019

Change the Weather History Date:

Saturday, June 8, 2019

  Actual Average Record
Temperature  
Mean Temperature 74 °F 75 °F  
Max Temperature 76 °F 86 °F 97 °F (2008)
Min Temperature 71 °F 63 °F 48 °F (1998)
Degree Days  
Heating Degree Days 0 0  
Month to date heating degree days 0 0  
Since 1 June heating degree days 0 0  
Since 1 July heating degree days 2325 2950  
Cooling Degree Days 9 10  
Month to date cooling degree days 92 71  
Year to date cooling degree days 499 261  
Since 1 June cooling degree days 92 71  
Growing Degree Days 23 (Base 50)    
Moisture  
Dew Point 70 °F    
Average Humidity 90    
Maximum Humidity 93    
Minimum Humidity 87    
Precipitation  
Precipitation 4.27 in 0.12 in 4.27 in (2019)
Month to date precipitation 5.77 0.98  
Year to date precipitation 26.53 22.50  
Snow  
Snow 0.00 in - - ()
Month to date snowfall 0.0  
Since 1 June snowfall 0.0  
Since 1 July snowfall T  
Snow Depth 0.00 in    
Sea Level Pressure  
Sea Level Pressure 29.81 in    
Wind  
Wind Speed 6 mph (ESE)    
Max Wind Speed 17 mph    
Max Gust Speed 24 mph    
Visibility 6 miles    
Events Fog , Rain , Thunderstorm    
T = Trace of Precipitation, MM = Missing Value Source: NWS Daily Summary

Daily Weather History Graph

Daily Weather History Graph

Search for Another Location

Airport or City:

Astronomy

Jun. 08, 2019 Rise Set
Actual Time 6:28 AM EDT 8:46 PM EDT
Civil Twilight 5:59 AM EDT 9:15 PM EDT
Nautical Twilight 5:24 AM EDT 9:50 PM EDT
Astronomical Twilight 4:46 AM EDT 10:28 PM EDT
Moon 11:48 AM EDT (6/8) 12:53 AM EDT (6/8)
Length of Visible Light 15h 15m
Length of Day
14h 18m
Waxing Crescent, 32% of the Moon is Illuminated
Jun 8
Waxing Crescent
Jun 10
First Quarter
Jun 17
Full
Jun 25
Last Quarter
Jul 2
New

Hourly Weather History & Observations

Time (EDT) Temp. Dew Point Humidity Pressure Visibility Wind Dir Wind Speed Gust Speed Precip Events Conditions
12:19 AM 72.0 °F 70.0 °F 93% 29.81 in 10.0 mi ESE 6.9 mph - N/A   Overcast
12:53 AM 72.0 °F 69.1 °F 91% 29.79 in 10.0 mi SE 6.9 mph - 0.00 in Rain Light Rain
1:35 AM 72.0 °F 69.1 °F 91% 29.81 in 10.0 mi SSE 4.6 mph - 0.00 in   Overcast
1:53 AM 72.0 °F 69.1 °F 91% 29.79 in 10.0 mi SSE 3.5 mph - 0.00 in   Mostly Cloudy
2:44 AM 72.0 °F 69.1 °F 91% 29.79 in 10.0 mi SE 8.1 mph - N/A   Mostly Cloudy
2:53 AM 72.0 °F 69.1 °F 91% 29.77 in 10.0 mi SE 4.6 mph - N/A   Mostly Cloudy
3:53 AM 72.0 °F 70.0 °F 93% 29.77 in 10.0 mi SE 5.8 mph - N/A   Overcast
4:10 AM 72.0 °F 70.0 °F 93% 29.79 in 10.0 mi SE 5.8 mph - N/A   Overcast
4:53 AM 72.0 °F 70.0 °F 93% 29.77 in 7.0 mi SE 6.9 mph - 0.01 in Rain Light Rain
5:46 AM 73.0 °F 70.0 °F 90% 29.80 in 2.5 mi Calm Calm - 0.06 in Rain Light Rain
5:53 AM 73.0 °F 70.0 °F 90% 29.78 in 8.0 mi SE 4.6 mph - 0.06 in   Overcast
6:53 AM 73.0 °F 71.1 °F 93% 29.77 in 7.0 mi ESE 4.6 mph - 0.00 in Rain , Thunderstorm Light Rain
7:17 AM 72.0 °F 69.1 °F 91% 29.80 in 2.5 mi SE 15.0 mph 24.2 mph 0.05 in Rain , Thunderstorm Thunderstorms and Rain
7:26 AM 72.0 °F 70.0 °F 93% 29.80 in 0.8 mi SE 6.9 mph - 0.31 in Rain , Thunderstorm Heavy Thunderstorms and Rain
7:38 AM 72.0 °F 70.0 °F 93% 29.82 in 1.5 mi NW 6.9 mph - 0.47 in Rain , Thunderstorm Thunderstorms and Rain
7:53 AM 72.0 °F 70.0 °F 93% 29.79 in 0.8 mi Variable 4.6 mph - 0.81 in Rain , Thunderstorm Heavy Rain
8:12 AM 72.0 °F 70.0 °F 93% 29.81 in 1.0 mi North 5.8 mph - 0.37 in Rain , Thunderstorm Heavy Rain
8:18 AM 72.0 °F 70.0 °F 93% 29.81 in 2.0 mi Variable 3.5 mph - 0.40 in Rain , Thunderstorm Light Rain
8:21 AM 72.0 °F 70.0 °F 93% 29.82 in 1.8 mi ESE 6.9 mph - 0.50 in Rain , Thunderstorm Heavy Rain
8:25 AM 72.0 °F 70.0 °F 93% 29.81 in 0.8 mi NNE 12.7 mph - 0.70 in Rain , Thunderstorm Heavy Thunderstorms and Rain
8:32 AM 72.0 °F 70.0 °F 93% 29.81 in 1.0 mi WNW 3.5 mph - 0.79 in Rain , Thunderstorm Heavy Thunderstorms and Rain
8:40 AM 72.0 °F 69.1 °F 91% 29.80 in 1.2 mi Calm Calm - 0.84 in Rain , Thunderstorm Thunderstorms and Rain
8:53 AM 72.0 °F 70.0 °F 93% 29.80 in 1.2 mi Calm Calm - 0.96 in Rain , Thunderstorm Heavy Thunderstorms and Rain
9:00 AM 72.0 °F 70.0 °F 93% 29.81 in 1.0 mi North 9.2 mph - 0.17 in Rain , Thunderstorm Heavy Thunderstorms and Rain
9:21 AM 71.1 °F 69.1 °F 93% 29.82 in 0.8 mi Calm Calm - 0.49 in Rain , Thunderstorm Heavy Rain
9:31 AM 72.0 °F 70.0 °F 93% 29.83 in 1.0 mi Calm Calm - 0.53 in Rain , Thunderstorm Rain
9:41 AM 72.0 °F 70.0 °F 93% 29.83 in 3.0 mi ENE 3.5 mph - 0.54 in Rain , Thunderstorm Light Rain
9:53 AM 71.1 °F 69.1 °F 93% 29.81 in 4.0 mi NNE 5.8 mph - 0.56 in Rain , Thunderstorm Light Rain
10:07 AM 72.0 °F 69.1 °F 91% 29.82 in 10.0 mi ESE 3.5 mph - 0.00 in   Overcast
10:53 AM 73.0 °F 69.1 °F 87% 29.81 in 10.0 mi NE 4.6 mph - 0.00 in Thunderstorm Overcast
11:02 AM 73.0 °F 69.1 °F 87% 29.83 in 5.0 mi Calm Calm - N/A Thunderstorm Overcast
11:11 AM 73.0 °F 70.0 °F 90% 29.83 in 2.0 mi Calm Calm - 0.05 in Rain , Thunderstorm Thunderstorms and Rain
11:17 AM 73.0 °F 70.0 °F 90% 29.83 in 4.0 mi Variable 4.6 mph - 0.06 in Rain Light Rain
11:28 AM 72.0 °F 69.1 °F 91% 29.83 in 5.0 mi East 5.8 mph - 0.08 in Rain Light Rain
11:33 AM 72.0 °F 70.0 °F 93% 29.83 in 1.8 mi East 11.5 mph - 0.12 in Rain Heavy Rain
11:41 AM 72.0 °F 70.0 °F 93% 29.83 in 3.0 mi East 6.9 mph - 0.13 in Rain Light Rain
11:53 AM 72.0 °F 69.1 °F 91% 29.81 in 10.0 mi East 6.9 mph - 0.14 in Rain Light Rain
12:12 PM 73.0 °F 70.0 °F 90% 29.82 in 10.0 mi East 5.8 mph - 0.00 in   Overcast
12:22 PM 73.0 °F 71.1 °F 93% 29.82 in 10.0 mi SE 3.5 mph - 0.00 in Rain , Thunderstorm Light Rain
12:43 PM 73.9 °F 72.0 °F 93% 29.81 in 10.0 mi ESE 5.8 mph - 0.02 in Rain , Thunderstorm Light Thunderstorms and Rain
12:53 PM 75.0 °F 72.0 °F 90% 29.79 in 10.0 mi ESE 6.9 mph - 0.02 in Thunderstorm Thunderstorm
1:10 PM 75.0 °F 72.0 °F 90% 29.81 in 10.0 mi ESE 6.9 mph - N/A Thunderstorm Overcast
1:15 PM 75.9 °F 73.0 °F 91% 29.81 in 8.0 mi ESE 5.8 mph - 0.00 in Rain , Thunderstorm Light Thunderstorms and Rain
1:26 PM 75.0 °F 72.0 °F 90% 29.83 in 1.5 mi WSW 8.1 mph - 0.09 in Rain , Thunderstorm Light Thunderstorms and Rain
1:32 PM 73.0 °F 70.0 °F 90% 29.82 in 0.2 mi WNW 8.1 mph - 0.28 in Fog , Rain , Thunderstorm Heavy Thunderstorms and Rain
1:44 PM 73.0 °F 71.1 °F 93% 29.83 in 0.2 mi Variable 4.6 mph - 0.66 in Fog , Rain , Thunderstorm Heavy Rain
1:53 PM 73.0 °F 70.0 °F 90% 29.82 in 0.2 mi WSW 9.2 mph - 1.09 in Fog , Rain Heavy Rain
2:01 PM 72.0 °F 70.0 °F 93% 29.83 in 0.5 mi West 5.8 mph - 0.15 in Fog , Rain , Thunderstorm Heavy Thunderstorms and Rain
2:11 PM 72.0 °F 70.0 °F 93% 29.82 in 1.0 mi WNW 8.1 mph - 0.23 in Rain , Thunderstorm Light Rain
2:15 PM 72.0 °F 70.0 °F 93% 29.82 in 4.0 mi WNW 8.1 mph - 0.23 in Rain , Thunderstorm Light Rain
2:26 PM 72.0 °F 69.1 °F 91% 29.83 in 2.5 mi WNW 8.1 mph - 0.26 in Rain , Thunderstorm Rain
2:31 PM 72.0 °F 69.1 °F 91% 29.84 in 0.8 mi WNW 5.8 mph - 0.36 in Rain , Thunderstorm Rain
2:40 PM 72.0 °F 70.0 °F 93% 29.82 in 0.2 mi North 8.1 mph - 0.58 in Fog , Rain , Thunderstorm Heavy Rain
2:44 PM 72.0 °F 69.1 °F 91% 29.82 in 0.5 mi North 8.1 mph - 0.59 in Fog , Rain Rain
2:47 PM 71.6 °F 69.8 °F 94% 29.81 in 1.5 mi North 8.1 mph - 0.60 in Rain , Thunderstorm Rain
2:50 PM 71.6 °F 69.8 °F 94% 29.81 in 3.0 mi North 4.6 mph - 0.60 in Rain , Thunderstorm Light Rain
2:53 PM 72.0 °F 69.1 °F 91% 29.79 in 4.0 mi North 5.8 mph - 0.61 in Rain , Thunderstorm Light Rain
3:20 PM 72.0 °F 70.0 °F 93% 29.80 in 10.0 mi ESE 5.8 mph - 0.01 in   Overcast
3:40 PM 72.0 °F 70.0 °F 93% 29.80 in 10.0 mi East 4.6 mph - 0.01 in   Overcast
3:53 PM 73.0 °F 70.0 °F 90% 29.78 in 10.0 mi East 3.5 mph - 0.01 in   Overcast
4:21 PM 73.0 °F 71.1 °F 93% 29.80 in 10.0 mi East 5.8 mph - N/A   Overcast
4:53 PM 73.0 °F 70.0 °F 90% 29.79 in 10.0 mi ESE 5.8 mph - N/A   Mostly Cloudy
5:17 PM 73.0 °F 71.1 °F 93% 29.81 in 10.0 mi ESE 5.8 mph - N/A   Mostly Cloudy
5:29 PM 73.0 °F 71.1 °F 93% 29.81 in 10.0 mi ESE 5.8 mph - N/A   Scattered Clouds
5:42 PM 73.0 °F 71.1 °F 93% 29.82 in 10.0 mi ESE 5.8 mph - N/A   Mostly Cloudy
5:53 PM 73.0 °F 71.1 °F 93% 29.80 in 10.0 mi ESE 5.8 mph - N/A   Mostly Cloudy
6:53 PM 73.9 °F 71.1 °F 91% 29.79 in 10.0 mi ESE 8.1 mph - N/A   Overcast
7:41 PM 73.9 °F 71.1 °F 91% 29.82 in 10.0 mi ESE 6.9 mph - N/A   Overcast
7:53 PM 73.9 °F 71.1 °F 91% 29.80 in 10.0 mi ESE 4.6 mph - N/A   Overcast
8:07 PM 73.9 °F 71.1 °F 91% 29.82 in 10.0 mi ESE 6.9 mph - N/A   Overcast
8:53 PM 73.0 °F 71.1 °F 93% 29.80 in 10.0 mi ESE 8.1 mph - N/A   Overcast
9:23 PM 73.0 °F 71.1 °F 93% 29.83 in 10.0 mi Calm Calm - N/A   Overcast
9:53 PM 73.0 °F 71.1 °F 93% 29.83 in 10.0 mi East 3.5 mph - N/A   Overcast
10:53 PM 73.0 °F 70.0 °F 90% 29.85 in 10.0 mi ESE 4.6 mph - N/A   Overcast
11:46 PM 73.0 °F 70.0 °F 90% 29.87 in 10.0 mi SE 5.8 mph - N/A   Overcast
11:53 PM 73.0 °F 70.0 °F 90% 29.86 in 10.0 mi ESE 6.9 mph - N/A   Overcast